TimePST,TemperatureF,Dew PointF,Humidity,Sea Level PressureIn,VisibilityMPH,Wind Direction,Wind SpeedMPH,Gust SpeedMPH,PrecipitationIn,Events,Conditions,WindDirDegrees,DateUTC
12:55 AM,42.1,21.9,45,30.17,10.0,ENE,8.1,-,N/A,,Clear,70,2013-01-04 08:55:00
1:55 AM,42.1,21.0,43,30.17,10.0,East,8.1,-,N/A,,Clear,80,2013-01-04 09:55:00
2:55 AM,42.1,19.9,41,30.17,10.0,ENE,9.2,-,N/A,,Clear,70,2013-01-04 10:55:00
3:55 AM,41.0,19.0,41,30.16,10.0,ENE,10.4,-,N/A,,Clear,60,2013-01-04 11:55:00
4:55 AM,43.0,17.1,35,30.17,10.0,East,4.6,-,N/A,,Clear,90,2013-01-04 12:55:00
5:55 AM,39.0,18.0,43,30.17,10.0,East,8.1,-,N/A,,Clear,80,2013-01-04 13:55:00
6:55 AM,37.0,18.0,46,30.20,10.0,Calm,Calm,-,N/A,,Clear,0,2013-01-04 14:55:00
7:55 AM,48.0,18.0,30,30.22,10.0,ENE,6.9,-,N/A,,Clear,70,2013-01-04 15:55:00
8:55 AM,57.9,16.0,19,30.25,10.0,ENE,4.6,-,N/A,,Clear,60,2013-01-04 16:55:00
9:55 AM,63.0,10.9,13,30.25,10.0,Calm,Calm,-,N/A,,Clear,0,2013-01-04 17:55:00
10:55 AM,63.0,9.0,12,30.25,10.0,Variable,5.8,-,N/A,,Clear,0,2013-01-04 18:55:00
11:55 AM,64.9,10.9,12,30.20,10.0,NW,3.5,-,N/A,,Clear,320,2013-01-04 19:55:00
12:55 PM,66.0,9.0,11,30.17,10.0,NNW,5.8,-,N/A,,Clear,330,2013-01-04 20:55:00
1:55 PM,64.9,14.0,14,30.17,10.0,WNW,8.1,-,N/A,,Clear,290,2013-01-04 21:55:00
2:55 PM,63.0,16.0,16,30.17,10.0,NW,6.9,-,N/A,,Clear,310,2013-01-04 22:55:00
3:55 PM,61.0,15.1,17,30.17,10.0,West,6.9,-,N/A,,Clear,280,2013-01-04 23:55:00
4:55 PM,54.0,21.9,29,30.17,10.0,WNW,5.8,-,N/A,,Clear,300,2013-01-05 00:55:00
5:55 PM,52.0,30.0,43,30.18,10.0,North,3.5,-,N/A,,Clear,350,2013-01-05 01:55:00
6:55 PM,44.1,30.9,60,30.20,10.0,NNE,3.5,-,N/A,,Clear,30,2013-01-05 02:55:00
7:55 PM,43.0,30.9,62,30.20,10.0,East,4.6,-,N/A,,Clear,80,2013-01-05 03:55:00
8:55 PM,41.0,30.0,65,30.22,10.0,East,4.6,-,N/A,,Clear,80,2013-01-05 04:55:00
9:55 PM,39.9,28.0,63,30.23,10.0,East,3.5,-,N/A,,Clear,80,2013-01-05 05:55:00
10:55 PM,41.0,27.0,57,30.23,10.0,ENE,5.8,-,N/A,,Clear,60,2013-01-05 06:55:00
11:55 PM,39.0,26.1,60,30.23,10.0,Calm,Calm,-,N/A,,Clear,0,2013-01-05 07:55:00